| time (UTC) | temp F | wind direction | speed knots | gust knots | rain 1hr in | rain 24hr in | rain mn in | humidity % | barometer mb |
| 20260904103100 | 66 | 306 | 6.1 | 10.4 | 0.04 | 0.04 | 0.04 | 87 | 1010.2 |
| 20260904102559 | 68 | 309 | 6.1 | 14.8 | 0.02 | 0.02 | 0.02 | 84 | 1010.1 |
| 20260904102100 | 71 | 307 | 9.6 | 17.4 | 0.00 | 0.00 | 0.00 | 86 | 1009.9 |
| 20260904093559 | 72 | 238 | 13.0 | 21.7 | 0.00 | 0.00 | 0.00 | 83 | 1009.6 |
| 20260904093100 | 72 | 251 | 11.3 | 20.9 | 0.00 | 0.00 | 0.00 | 83 | 1009.6 |
| 20260904090058 | 72 | 241 | 12.2 | 24.3 | 0.00 | 0.00 | 0.00 | 83 | 1009.6 |
| 20260904082558 | 72 | 237 | 9.6 | 22.6 | 0.00 | 0.00 | 0.00 | 83 | 1009.3 |
| 20260904082059 | 72 | 239 | 13.9 | 25.2 | 0.00 | 0.00 | 0.00 | 83 | 1009.3 |
| 20260904080059 | 71 | 230 | 13.9 | 25.2 | 0.00 | 0.00 | 0.00 | 84 | 1009.5 |
| 20260904075558 | 71 | 245 | 12.2 | 21.7 | 0.00 | 0.00 | 0.00 | 85 | 1009.3 |
| 20260904074559 | 71 | 228 | 10.4 | 25.2 | 0.00 | 0.00 | 0.00 | 85 | 1009.4 |
| 20260904074100 | 71 | 244 | 9.6 | 20.0 | 0.00 | 0.00 | 0.00 | 86 | 1009.5 |
| 20260904073558 | 71 | 244 | 10.4 | 25.2 | 0.00 | 0.00 | 0.00 | 85 | 1009.5 |
| 20260904073059 | 71 | 236 | 12.2 | 24.3 | 0.00 | 0.00 | 0.00 | 86 | 1009.8 |
| 20260904072559 | 70 | 249 | 12.2 | 21.7 | 0.00 | 0.00 | 0.00 | 86 | 1009.9 |
| 20260904072059 | 71 | 261 | 11.3 | 20.9 | 0.00 | 0.00 | 0.00 | 85 | 1009.9 |
| 20260904071558 | 71 | 236 | 10.4 | 25.2 | 0.00 | 0.00 | 0.00 | 85 | 1009.9 |
| 20260904071059 | 71 | 253 | 11.3 | 20.0 | 0.00 | 0.00 | 0.00 | 85 | 1009.9 |
| 20260904065559 | 71 | 250 | 11.3 | 26.9 | 0.00 | 0.00 | 0.00 | 84 | 1009.9 |
| 20260904062059 | 71 | 243 | 9.6 | 22.6 | 0.00 | 0.02 | 0.00 | 84 | 1009.8 |
| 20260904053558 | 70 | 258 | 11.3 | 24.3 | 0.00 | 0.04 | 0.00 | 85 | 1010.5 |
| 20260904052059 | 70 | 240 | 7.8 | 22.6 | 0.00 | 0.05 | 0.00 | 85 | 1010.5 |
| 20260904051559 | 70 | 240 | 10.4 | 26.1 | 0.00 | 0.05 | 0.00 | 85 | 1010.5 |
| 20260904045059 | 70 | 251 | 10.4 | 22.6 | 0.00 | 0.05 | 0.00 | 85 | 1010.8 |
| 20260904044558 | 70 | 256 | 8.7 | 17.4 | 0.00 | 0.05 | 0.00 | 86 | 1011.0 |
| 20260904044059 | 70 | 249 | 7.8 | 18.2 | 0.00 | 0.05 | 0.00 | 86 | 1011.1 |
| 20260904043558 | 70 | 227 | 7.8 | 22.6 | 0.00 | 0.05 | 0.00 | 86 | 1011.1 |
| 20260904043059 | 70 | 244 | 8.7 | 28.7 | 0.00 | 0.05 | 0.00 | 86 | 1011.2 |
| 20260904042559 | 70 | 248 | 10.4 | 22.6 | 0.00 | 0.05 | 0.00 | 86 | 1011.3 |
| 20260904040058 | 70 | 236 | 8.7 | 14.8 | 0.00 | 0.05 | 0.00 | 86 | 1011.7 |
| 20260904035558 | 70 | 223 | 7.0 | 18.2 | 0.00 | 0.05 | 0.00 | 86 | 1011.7 |
| 20260904035100 | 70 | 251 | 7.8 | 14.8 | 0.00 | 0.05 | 0.00 | 87 | 1011.7 |
| 20260904034558 | 70 | 255 | 6.1 | 17.4 | 0.00 | 0.05 | 0.00 | 87 | 1011.7 |
| 20260904034059 | 70 | 231 | 7.8 | 20.0 | 0.00 | 0.05 | 0.00 | 87 | 1011.8 |
| 20260904033559 | 70 | 237 | 4.3 | 17.4 | 0.00 | 0.05 | 0.00 | 87 | 1011.9 |
| 20260904033059 | 70 | 251 | 7.0 | 13.9 | 0.00 | 0.05 | 0.00 | 87 | 1012.0 |
| 20260904030058 | 70 | 240 | 7.8 | 13.9 | 0.00 | 0.05 | 0.00 | 87 | 1012.0 |
| 20260904024558 | 70 | 225 | 6.1 | 13.0 | 0.00 | 0.05 | 0.00 | 87 | 1012.2 |
| 20260904024059 | 70 | 256 | 5.2 | 11.3 | 0.00 | 0.05 | 0.00 | 87 | 1012.2 |
| 20260904023559 | 70 | 228 | 8.7 | 13.9 | 0.00 | 0.05 | 0.00 | 87 | 1012.2 |
| 20260904023058 | 70 | 230 | 6.1 | 15.6 | 0.00 | 0.05 | 0.00 | 87 | 1012.2 |
| 20260904022558 | 70 | 243 | 7.8 | 20.0 | 0.00 | 0.05 | 0.00 | 86 | 1012.6 |
| 20260904022059 | 70 | 254 | 8.7 | 17.4 | 0.00 | 0.05 | 0.00 | 87 | 1012.5 |
| 20260904021558 | 70 | 243 | 7.0 | 17.4 | 0.00 | 0.05 | 0.00 | 86 | 1012.5 |
| 20260904020059 | 70 | 263 | 5.2 | 13.0 | 0.00 | 0.05 | 0.00 | 87 | 1012.8 |
| 20260904014558 | 70 | 229 | 4.3 | 11.3 | 0.00 | 0.05 | 0.00 | 87 | 1013.0 |
| 20260904014059 | 70 | 240 | 6.1 | 13.9 | 0.00 | 0.05 | 0.00 | 87 | 1013.0 |
| 20260904013558 | 70 | 230 | 6.1 | 13.9 | 0.00 | 0.05 | 0.00 | 87 | 1013.2 |
| 20260904013058 | 70 | 231 | 7.0 | 13.0 | 0.00 | 0.05 | 0.00 | 87 | 1013.2 |
| 20260903232058 | 70 | 239 | 4.3 | 7.8 | 0.00 | 0.05 | 0.00 | 87 | 1014.3 |
| 20260903231558 | 70 | 248 | 3.5 | 8.7 | 0.00 | 0.05 | 0.00 | 87 | 1014.3 |
| 20260903230057 | 70 | 228 | 6.1 | 13.0 | 0.00 | 0.05 | 0.00 | 87 | 1014.8 |
| 20260903225558 | 70 | 233 | 4.3 | 11.3 | 0.00 | 0.05 | 0.00 | 87 | 1014.8 |
| 20260903225058 | 70 | 233 | 4.3 | 10.4 | 0.00 | 0.05 | 0.00 | 87 | 1014.8 |
| 20260903224557 | 70 | 250 | 5.2 | 13.0 | 0.00 | 0.05 | 0.00 | 87 | 1014.8 |
| 20260903224059 | 70 | 238 | 6.1 | 13.9 | 0.00 | 0.05 | 0.00 | 87 | 1014.8 |
| 20260903223558 | 70 | 241 | 4.3 | 11.3 | 0.00 | 0.05 | 0.00 | 87 | 1014.8 |
| 20260903223059 | 70 | 236 | 4.3 | 12.2 | 0.00 | 0.05 | 0.00 | 87 | 1014.8 |
| 20260903220058 | 70 | 247 | 5.2 | 13.0 | 0.00 | 0.05 | 0.00 | 87 | 1015.3 |
| 20260903215557 | 70 | 240 | 6.1 | 19.1 | 0.00 | 0.05 | 0.05 | 87 | 1015.3 |
| 20260903214557 | 70 | 236 | 6.1 | 13.0 | 0.00 | 0.05 | 0.05 | 87 | 1015.3 |
| 20260903214058 | 70 | 232 | 7.0 | 12.2 | 0.00 | 0.05 | 0.05 | 87 | 1015.3 |
| 20260903212058 | 70 | 244 | 4.3 | 13.0 | 0.00 | 0.05 | 0.05 | 87 | 1015.4 |
| 20260903211557 | 70 | 252 | 5.2 | 12.2 | 0.00 | 0.05 | 0.05 | 87 | 1015.4 |
| 20260903211058 | 70 | 238 | 5.2 | 17.4 | 0.00 | 0.05 | 0.05 | 87 | 1015.6 |
| 20260903204058 | 70 | 246 | 4.3 | 13.0 | 0.00 | 0.05 | 0.05 | 88 | 1016.0 |
| 20260903203557 | 70 | 233 | 4.3 | 10.4 | 0.00 | 0.05 | 0.05 | 88 | 1016.0 |
| 20260903203058 | 70 | 251 | 6.1 | 13.0 | 0.00 | 0.05 | 0.05 | 88 | 1016.1 |
| 20260903202557 | 70 | 241 | 6.1 | 10.4 | 0.00 | 0.05 | 0.05 | 88 | 1015.9 |
| 20260903201558 | 70 | 223 | 6.1 | 12.2 | 0.00 | 0.05 | 0.05 | 88 | 1016.2 |
| 20260903201058 | 70 | 233 | 5.2 | 11.3 | 0.00 | 0.05 | 0.05 | 87 | 1016.0 |
| 20260903193058 | 70 | 260 | 6.1 | 12.2 | 0.00 | 0.05 | 0.05 | 87 | 1016.2 |
| 20260903192557 | 70 | 228 | 5.2 | 11.3 | 0.00 | 0.05 | 0.05 | 87 | 1016.1 |
| 20260903192058 | 70 | 227 | 5.2 | 11.3 | 0.00 | 0.05 | 0.05 | 88 | 1016.0 |
| 20260903183058 | 70 | 258 | 4.3 | 11.3 | 0.00 | 0.05 | 0.05 | 87 | 1016.2 |
| 20260903182557 | 70 | 236 | 6.1 | 11.3 | 0.00 | 0.05 | 0.05 | 87 | 1016.3 |
| 20260903181058 | 71 | 240 | 4.3 | 14.8 | 0.00 | 0.05 | 0.05 | 86 | 1016.2 |
| 20260903174557 | 71 | 245 | 6.1 | 10.4 | 0.00 | 0.05 | 0.05 | 84 | 1016.3 |
| 20260903173557 | 71 | 244 | 4.3 | 10.4 | 0.00 | 0.05 | 0.05 | 83 | 1016.3 |
| 20260903173059 | 72 | 225 | 5.2 | 10.4 | 0.00 | 0.05 | 0.05 | 83 | 1016.5 |
| 20260903172557 | 72 | 246 | 3.5 | 8.7 | 0.00 | 0.05 | 0.05 | 82 | 1016.6 |
| 20260903172058 | 72 | 261 | 4.3 | 10.4 | 0.00 | 0.05 | 0.05 | 81 | 1016.5 |
| 20260903171557 | 72 | 339 | 2.6 | 7.0 | 0.00 | 0.05 | 0.05 | 81 | 1016.4 |
| 20260903171058 | 72 | 237 | 2.6 | 10.4 | 0.00 | 0.05 | 0.05 | 81 | 1016.4 |
| 20260903162557 | 72 | 248 | 6.1 | 17.4 | 0.00 | 0.05 | 0.05 | 80 | 1016.3 |
| 20260903162058 | 72 | 243 | 5.2 | 13.0 | 0.00 | 0.05 | 0.05 | 79 | 1016.6 |
| 20260903155557 | 73 | 242 | 6.1 | 10.4 | 0.00 | 0.05 | 0.05 | 79 | 1016.4 |
| 20260903155058 | 72 | 257 | 7.0 | 12.2 | 0.00 | 0.05 | 0.05 | 79 | 1016.4 |
| 20260903154557 | 72 | 240 | 7.0 | 11.3 | 0.00 | 0.05 | 0.05 | 79 | 1016.4 |
| 20260903154058 | 72 | 249 | 5.2 | 12.2 | 0.00 | 0.05 | 0.05 | 79 | 1016.4 |
| 20260903153557 | 73 | 247 | 5.2 | 14.8 | 0.00 | 0.05 | 0.05 | 78 | 1016.5 |
| 20260903152557 | 73 | 262 | 6.1 | 12.2 | 0.00 | 0.05 | 0.05 | 76 | 1016.6 |
| 20260903152058 | 73 | 299 | 6.1 | 14.8 | 0.00 | 0.05 | 0.05 | 75 | 1016.7 |
| 20260903151557 | 73 | 249 | 7.8 | 12.2 | 0.00 | 0.05 | 0.05 | 76 | 1016.8 |
| 20260903151057 | 73 | 254 | 6.1 | 17.4 | 0.00 | 0.05 | 0.05 | 76 | 1016.8 |
| 20260903145058 | 73 | 256 | 4.3 | 13.0 | 0.00 | 0.05 | 0.05 | 74 | 1016.6 |
| 20260903144557 | 73 | 271 | 5.2 | 13.0 | 0.00 | 0.05 | 0.05 | 75 | 1016.8 |
| 20260903144057 | 74 | 284 | 6.1 | 13.0 | 0.00 | 0.05 | 0.05 | 74 | 1016.7 |
| 20260903143558 | 74 | 267 | 6.1 | 17.4 | 0.00 | 0.05 | 0.05 | 74 | 1016.7 |
| 20260903142057 | 73 | 235 | 7.8 | 13.9 | 0.00 | 0.05 | 0.05 | 74 | 1016.5 |
| 20260903141557 | 73 | 283 | 7.0 | 15.6 | 0.00 | 0.05 | 0.05 | 74 | 1016.5 |
| 20260903141058 | 73 | 264 | 7.8 | 14.8 | 0.00 | 0.05 | 0.05 | 74 | 1016.6 |
| 20260903134557 | 73 | 247 | 8.7 | 14.8 | 0.00 | 0.05 | 0.05 | 72 | 1016.5 |
| 20260903134058 | 73 | 291 | 7.8 | 13.0 | 0.00 | 0.05 | 0.05 | 74 | 1016.5 |
| 20260903133557 | 73 | 261 | 6.1 | 14.8 | 0.00 | 0.05 | 0.05 | 73 | 1016.6 |
| 20260903130057 | 73 | 270 | 6.1 | 17.4 | 0.00 | 0.05 | 0.05 | 74 | 1016.3 |
| 20260903124556 | 73 | 265 | 7.0 | 19.1 | 0.00 | 0.05 | 0.05 | 75 | 1016.4 |
| 20260903124058 | 73 | 260 | 8.7 | 17.4 | 0.00 | 0.05 | 0.05 | 75 | 1016.4 |
| 20260903123557 | 72 | 263 | 10.4 | 18.2 | 0.00 | 0.05 | 0.05 | 76 | 1016.4 |
| 20260903123057 | 72 | 263 | 8.7 | 20.0 | 0.00 | 0.05 | 0.05 | 75 | 1016.4 |
| 20260903120057 | 73 | 268 | 7.0 | 19.1 | 0.00 | 0.05 | 0.05 | 76 | 1016.3 |
| 20260903115557 | 73 | 262 | 5.2 | 13.9 | 0.00 | 0.05 | 0.05 | 77 | 1016.3 |
| 20260903115057 | 73 | 271 | 9.6 | 17.4 | 0.00 | 0.05 | 0.05 | 76 | 1016.2 |
| 20260903114557 | 72 | 278 | 7.0 | 13.9 | 0.00 | 0.05 | 0.05 | 78 | 1016.3 |
| 20260903113057 | 72 | 263 | 7.8 | 17.4 | 0.00 | 0.05 | 0.05 | 78 | 1016.2 |
| 20260903112557 | 72 | 246 | 8.7 | 17.4 | 0.00 | 0.05 | 0.05 | 78 | 1016.2 |
| 20260903112057 | 72 | 263 | 6.1 | 14.8 | 0.00 | 0.05 | 0.05 | 79 | 1016.1 |
| 20260903111556 | 72 | 252 | 8.7 | 14.8 | 0.00 | 0.05 | 0.05 | 79 | 1016.1 |
| 20260903111058 | 71 | 267 | 7.8 | 14.8 | 0.00 | 0.05 | 0.05 | 80 | 1016.2 |
| 20260903110056 | 71 | 248 | 5.2 | 10.4 | 0.00 | 0.05 | 0.05 | 82 | 1016.0 |
| 20260903105556 | 71 | 257 | 7.8 | 14.8 | 0.00 | 0.05 | 0.05 | 81 | 1016.0 |
| 20260903105057 | 71 | 276 | 11.3 | 20.9 | 0.00 | 0.05 | 0.05 | 80 | 1016.0 |
| 20260903104557 | 71 | 249 | 9.6 | 18.2 | 0.00 | 0.05 | 0.05 | 79 | 1016.2 |